Location: Carrières
(48.9495°N, 2.0407°E)
Time: 12:25:50
(UTC+00:00)

deb Kosmos-2227 - Pass Details

Date: 23 May 2025
Orbit: 823 x 993 km, 71.2° (Epoch: 15 June)

Event Time Altitude Azimuth Distance (km) Brightness Sun altitude
Rises 02:17:14 0° 137° (SE) 3,593 ? -13.0°
Reaches altitude 10° 02:22:45 10° 97° (E) 2,704 ? -12.4°
Maximum altitude 02:23:26 10° 91° (E) 2,696 ? -12.4°
Drops below altitude 10° 02:24:07 10° 84° (E) 2,715 ? -12.3°
Sets 02:29:45 0° 45° (NE) 3,703 ? -11.7°
